Lincoln County, Oregon, United States
Lat: 44.65N, Lon: 123.85W
Wx Zone: ORZ004
Local Info
Past Weather Observations for Friday, July 22, 2016

NOTE: This archive is for the closest National Weather Service station to Lincoln County. Information may differ from the station used for current weather conditions.

Click here for Long-term Archive

Time Weather Temperature Dewpoint Humidity Pressure Winds Precip Visibility
23:55
Clear
52°F / 11°C 50°F / 10°C 94% 30.33 in
(1027 mb)
Calm - 10SM
23:35
Clear
52°F / 11°C 50°F / 10°C 94% 30.33 in
(1027 mb)
Calm - 10SM
23:15
Clear
52°F / 11°C 50°F / 10°C 94% 30.33 in
(1027 mb)
Calm - 10SM
22:55
Clear
54°F / 12°C 52°F / 11°C 94% 30.33 in
(1027 mb)
Calm - 10SM
22:35
Clear
55°F / 13°C 54°F / 12°C 94% 30.33 in
(1027 mb)
Calm - 10SM
22:15
Clear
55°F / 13°C 54°F / 12°C 94% 30.33 in
(1027 mb)
Calm - 10SM
21:55
Clear
55°F / 13°C 54°F / 12°C 94% 30.33 in
(1027 mb)
NE 3.5 mph
(NE 6 kph)
- 10SM
21:35
Clear
57°F / 14°C 54°F / 12°C 88% 30.33 in
(1027 mb)
NNE 3.5 mph
(NNE 6 kph)
- 10SM
21:15
Clear
57°F / 14°C 55°F / 13°C 94% 30.33 in
(1027 mb)
NNE 8.1 mph
(NNE 13 kph)
- 10SM
20:55
Clear
57°F / 14°C 55°F / 13°C 94% 30.33 in
(1027 mb)
N 3.5 mph
(N 6 kph)
- 10SM
20:35
Clear
59°F / 15°C 55°F / 13°C 88% 30.33 in
(1027 mb)
N 4.6 mph
(N 7 kph)
- 10SM
20:15
Clear
59°F / 15°C 55°F / 13°C 88% 30.33 in
(1027 mb)
N 5.8 mph
(N 9 kph)
- 10SM
19:55
Clear
59°F / 15°C 55°F / 13°C 88% 30.33 in
(1027 mb)
N 6.9 mph
(N 11 kph)
- 10SM
19:35
Clear
59°F / 15°C 55°F / 13°C 88% 30.33 in
(1027 mb)
N 6.9 mph
(N 11 kph)
- 10SM
19:15
Clear
61°F / 16°C 55°F / 13°C 83% N/A N 6.9 mph
(N 11 kph)
- 10SM
18:55
Clear
61°F / 16°C 55°F / 13°C 83% 30.33 in
(1027 mb)
NNW 8.1 mph
(NNW 13 kph)
- 10SM
18:35
Clear
63°F / 17°C 55°F / 13°C 77% 30.33 in
(1027 mb)
NNW 11.5 mph
(NNW 19 kph)
- 10SM
18:15
Clear
63°F / 17°C 55°F / 13°C 77% 30.33 in
(1027 mb)
NNW 10.4 mph
(NNW 17 kph)
- 10SM
17:55
Clear
63°F / 17°C 57°F / 14°C 83% 30.33 in
(1027 mb)
NNW 10.4 mph
(NNW 17 kph)
- 10SM
17:35
Clear
64°F / 18°C 57°F / 14°C 78% 30.33 in
(1027 mb)
NNW 10.4 mph
(NNW 17 kph)
- 10SM
17:15
Clear
64°F / 18°C 57°F / 14°C 78% 30.33 in
(1027 mb)
NW 12.7 mph
(NW 20 kph)
- 10SM
16:55
Clear
64°F / 18°C 55°F / 13°C 73% 30.33 in
(1027 mb)
NNW 11.5 mph
(NNW 19 kph)
- 10SM
16:35
Clear
64°F / 18°C 57°F / 14°C 78% 30.33 in
(1027 mb)
NNW 12.7 mph
(NNW 20 kph)
- 10SM
16:15
Clear
64°F / 18°C 57°F / 14°C 78% 30.33 in
(1027 mb)
NW 13.8 mph
(NW 22 kph)
- 10SM
15:55
Clear
64°F / 18°C 57°F / 14°C 78% 30.36 in
(1028 mb)
NNW 13.8 mph
(NNW 22 kph)
- 10SM
15:35
Clear
64°F / 18°C 57°F / 14°C 78% 30.36 in
(1028 mb)
NNW 12.7 mph
(NNW 20 kph)
- 10SM
15:15
Clear
64°F / 18°C 57°F / 14°C 78% 30.36 in
(1028 mb)
NNW 12.7 mph
(NNW 20 kph)
- 10SM
14:55
Partly Cloudy
64°F / 18°C 55°F / 13°C 73% 30.36 in
(1028 mb)
NNW 11.5 mph
(NNW 19 kph)
- 10SM
14:35
Mostly Cloudy
64°F / 18°C 55°F / 13°C 73% 30.36 in
(1028 mb)
NW 11.5 mph
(NW 19 kph)
- 10SM
14:15
Mostly Cloudy
64°F / 18°C 55°F / 13°C 73% 30.36 in
(1028 mb)
NW 9.2 mph
(NW 15 kph)
- 10SM
13:55
Mostly Cloudy
64°F / 18°C 55°F / 13°C 73% 30.36 in
(1028 mb)
NNW 9.2 mph
(NNW 15 kph)
- 10SM
13:35
Mostly Cloudy
66°F / 19°C 55°F / 13°C 68% 30.36 in
(1028 mb)
NNW 10.4 mph
(NNW 17 kph)
- 10SM
13:15
Mostly Cloudy
64°F / 18°C 54°F / 12°C 68% 30.36 in
(1028 mb)
NW 8.1 mph
(NW 13 kph)
- 10SM
12:55
Mostly Cloudy
64°F / 18°C 55°F / 13°C 73% 30.36 in
(1028 mb)
NW 8.1 mph
(NW 13 kph)
- 10SM
12:35
Mostly Cloudy
64°F / 18°C 55°F / 13°C 73% 30.36 in
(1028 mb)
NW 8.1 mph
(NW 13 kph)
- 10SM
12:15
Mostly Cloudy
64°F / 18°C 55°F / 13°C 73% 30.36 in
(1028 mb)
NNW 8.1 mph
(NNW 13 kph)
- 10SM
11:55
Partly Cloudy
64°F / 18°C 57°F / 14°C 78% 30.36 in
(1028 mb)
NNW 8.1 mph
(NNW 13 kph)
- 10SM
11:35
Partly Cloudy
63°F / 17°C 57°F / 14°C 83% 30.36 in
(1028 mb)
NW 6.9 mph
(NW 11 kph)
- 10SM
11:15
Mostly Cloudy
63°F / 17°C 57°F / 14°C 83% 30.36 in
(1028 mb)
W 5.8 mph
(W 9 kph)
- 10SM
10:55
Mostly Cloudy
61°F / 16°C 55°F / 13°C 83% 30.36 in
(1028 mb)
W 5.8 mph
(W 9 kph)
- 10SM
10:35
Mostly Cloudy
61°F / 16°C 55°F / 13°C 83% 30.36 in
(1028 mb)
W 4.6 mph
(W 7 kph)
- 10SM
10:15
Mostly Cloudy
61°F / 16°C 57°F / 14°C 88% 30.33 in
(1027 mb)
W 6.9 mph
(W 11 kph)
- 10SM
09:55
Partly Cloudy
63°F / 17°C 57°F / 14°C 83% 30.33 in
(1027 mb)
W 4.6 mph
(W 7 kph)
- 10SM
09:35
Clear
63°F / 17°C 59°F / 15°C 88% 30.33 in
(1027 mb)
NE 3.5 mph
(NE 6 kph)
- 10SM
09:15
Clear
61°F / 16°C 59°F / 15°C 94% 30.33 in
(1027 mb)
E 4.6 mph
(E 7 kph)
- 10SM
08:55
Partly Cloudy
61°F / 16°C 59°F / 15°C 94% 30.33 in
(1027 mb)
E 5.8 mph
(E 9 kph)
- 10SM
08:35
Overcast
59°F / 15°C 57°F / 14°C 94% 30.33 in
(1027 mb)
E 4.6 mph
(E 7 kph)
- 10SM
08:15
Overcast
59°F / 15°C 57°F / 14°C 94% 30.33 in
(1027 mb)
NE 3.5 mph
(NE 6 kph)
- 10SM
07:55
Overcast
59°F / 15°C 57°F / 14°C 94% 30.33 in
(1027 mb)
Calm 0.02 in
(0.51 mm)
10SM
07:35
Overcast
Drizzle
57°F / 14°C 55°F / 13°C 94% 30.33 in
(1027 mb)
Calm 0.01 in
(0.25 mm)
4SM
07:15
Overcast
Drizzle
57°F / 14°C 55°F / 13°C 94% 30.33 in
(1027 mb)
Calm 0.01 in
(0.25 mm)
2 1/2SM
06:55
Mostly Cloudy
Light Rain
57°F / 14°C 55°F / 13°C 94% 30.33 in
(1027 mb)
Calm - 7SM
06:35
Mostly Cloudy
57°F / 14°C 55°F / 13°C 94% 30.3 in
(1026 mb)
Calm - 10SM
06:15
Overcast
57°F / 14°C 55°F / 13°C 94% 30.3 in
(1026 mb)
Calm - 10SM
05:55
Overcast
57°F / 14°C 55°F / 13°C 94% 30.3 in
(1026 mb)
Calm - 10SM
05:35
Overcast
57°F / 14°C 55°F / 13°C 94% 30.3 in
(1026 mb)
Calm - 7SM
05:15
Overcast
Drizzle
55°F / 13°C 55°F / 13°C 100% 30.3 in
(1026 mb)
Calm - 1 3/4SM
04:55
Overcast
Fog And Mist
57°F / 14°C 55°F / 13°C 94% 30.3 in
(1026 mb)
Calm - 5SM
04:35
Mostly Cloudy
57°F / 14°C 55°F / 13°C 94% 30.27 in
(1025 mb)
Calm - 10SM
04:15
Mostly Cloudy
55°F / 13°C 55°F / 13°C 100% 30.27 in
(1025 mb)
Calm - 10SM
03:55
Overcast
Fog And Mist
55°F / 13°C 55°F / 13°C 100% 30.27 in
(1025 mb)
Calm - 5SM
02:35
Overcast
Drizzle
57°F / 14°C 55°F / 13°C 94% 30.27 in
(1025 mb)
SW 3.5 mph
(SW 6 kph)
- 2 1/2SM
02:15
Overcast
57°F / 14°C 55°F / 13°C 94% 30.27 in
(1025 mb)
SW 3.5 mph
(SW 6 kph)
- 7SM
01:55
Overcast
57°F / 14°C 55°F / 13°C 94% 30.27 in
(1025 mb)
Calm - 10SM
01:35
Overcast
57°F / 14°C 55°F / 13°C 94% 30.27 in
(1025 mb)
Calm - 10SM
01:15
Mostly Cloudy
57°F / 14°C 55°F / 13°C 94% 30.27 in
(1025 mb)
SE 3.5 mph
(SE 6 kph)
- 7SM
00:55
Mostly Cloudy
57°F / 14°C 55°F / 13°C 94% 30.27 in
(1025 mb)
S 3.5 mph
(S 6 kph)
- 10SM
00:35
Mostly Cloudy
57°F / 14°C 55°F / 13°C 94% 30.27 in
(1025 mb)
Calm - 10SM
00:15
Mostly Cloudy
Drizzle
57°F / 14°C 55°F / 13°C 94% 30.27 in
(1025 mb)
Calm - 7SM
Time Weather Temperature Dewpoint Humidity Pressure Winds Precip Visibility


Weather for websites

WeatherForYou.com, LLC is not responsible for any damages or problems caused by this service. Current weather conditions are obtained from the closest station including government and personal stations which may have varying degrees of accuracy. Weather forecasts are derived from the NOAA NDFD. Like all things, this site belongs to Jesus Christ... He just trusts us to maintain it. If you have any questions or comments email webmaster@weatherforyou.com

Copyright © 2016, WeatherForYou.com LLC. All rights reserved.